Regional Weather Roundup
Issued by NWS

Home | Current Version | Previous Version | Graphics & Text | Print | Product List | Glossary Off
Versions: 1 2 3 4 5 6 7 8 9 10 11 12 13 14 15 16 17 18 19 20 21 22 23 24 25 26 27 28 29 30 31 32 33 34 35 36 37 38 39 40 41 42 43 44 45 46 47 48 49 50

000
ASUS43 KDTX 291410
RWRMI
MICHIGAN HOURLY REGIONAL WEATHER ROUNDUP
NATIONAL WEATHER SERVICE DETROIT/PONTIAC MI
1000 AM EDT FRI JUL 29 2016

NOTE: "FAIR" INDICATES FEW OR NO CLOUDS BELOW 12,000 FEET WITH NO
SIGNIFICANT WEATHER AND/OR OBSTRUCTION TO VISIBILITY.

MIZ047>049-052>055-059>063-066>070-074>076-081>083-291500-
SOUTHEAST LOWER MICHIGAN

CITY           SKY/WX    TMP DP  RH WIND       PRES   REMARKS
ADRIAN         SUNNY     75  65  70 E7        29.96F
ALMA           CLOUDY    71  68  91 NE10      30.01S
ANN ARBOR      MOSUNNY   77  66  68 N7        29.96F
BAD AXE        LGT RAIN  69  62  77 NE9       30.01S
CARO           CLOUDY    69  62  78 E6        30.00R
DETROIT CITY   MOSUNNY   76  66  71 NE6       29.95F
DETROIT        CLOUDY    78  64  61 N6        29.96S
FLINT          CLOUDY    77  62  59 NE9       29.99S
GROSSE ILE     PTSUNNY   78  67  68 E7        29.94F
HILLSDALE      MOSUNNY   74  64  70 NE5       29.97R
HOWELL         MOSUNNY   74  63  70 N7        29.98S

CITY           SKY/WX    TMP DP  RH WIND       PRES   REMARKS
JACKSON        CLOUDY    73  66  78 NE6       29.98S
LAMBERTVILLE   MOSUNNY   77  67  70 NE5       29.95S
LANSING        MOSUNNY   72  63  73 NE12      29.99F
LAPEER         CLOUDY    71  62  75 NE7       29.99S
MASON          MOSUNNY   72  63  73 NE7       29.98S
MONROE         MOSUNNY   76  69  78 NE5       29.94S
MT. CLEMENS    PTSUNNY   76  65  70 N8        29.94S
PONTIAC        CLOUDY    74  63  68 NE9       29.97F
PORT HOPE        N/A     71  62  73 NE20      30.00S
PORT HURON     PTSUNNY   72  64  78 NE8       29.97S
TRI CITIES     CLOUDY    72  63  73 NE9       30.01S
MIDLAND        CLOUDY    69  66  89 NE3       30.01S
TROY           MOSUNNY   76  63  64 NE7       29.98F
SAGINAW HB     CLOUDY    70  63  78 NE6       30.00S
$$
MIZ043>046-050>051-056>058-064>065-071>073-077>080-291500-
SOUTHWEST LOWER MICHIGAN

CITY           SKY/WX    TMP DP  RH WIND       PRES   REMARKS
BATTLE CREEK   LGT RAIN  66  66 100 NE8       29.99R
BENTON HARBOR  MOSUNNY   75  64  68 E10       29.94S
BIG RAPIDS     CLOUDY    68  66  93 E6        30.02S
COLDWATER      HVY RAIN  67  65  92 SE16G26   29.97S VSB 1
FREMONT        FAIR      67  67  98 E9G16     30.00S
HOLLAND        CLOUDY    69  64  84 E10       29.98S
GRAND RAPIDS   CLOUDY    70  62  76 E9        29.99S
IONIA          FAIR      70  61  71 NE13      29.99S
KALAMAZOO      RAIN      67  63  87 N8        29.98R FOG
LUDINGTON      PTSUNNY   67  64  90 E9        30.01R
MARSHALL       CLOUDY    71  67  87 CALM      29.97S
MOUNT PLEASANT CLOUDY    69  66  90 NE8       30.01S
MUSKEGON       CLOUDY    67  65  93 NE9       29.99R
SOUTH HAVEN    MOSUNNY   69  65  87 E12       29.96S
$$
MIZ016>042-291500-
NORTHERN LOWER MICHIGAN

CITY           SKY/WX    TMP DP  RH WIND       PRES   REMARKS
ALPENA         PTSUNNY   70  56  61 E8        30.08R
BEAVER ISLAND  SUNNY     70  59  67 E12       30.08S
BELLAIRE       SUNNY     72  56  58 NE5       30.05S
CADILLAC       CLOUDY    65  60  86 E9        30.05R
CHARLEVOIX     SUNNY     71  55  58 E13G18    30.09S
FRANKFORT      CLOUDY    68  62  80 NE9       30.02F
GAYLORD        SUNNY     69  54  58 VRB7      30.08S
GRAYLING       CLOUDY    72  58  61 NE10      30.07S
HARBOR SPRINGS MOSUNNY   70  58  66 E9G16     30.07S
HOUGHTON LAKE  CLOUDY    65  61  87 NE8       30.06S
MANISTEE       PTSUNNY   68  63  84 E9        30.01S
OSCODA         CLOUDY    71  58  61 NE13      30.05S
PELLSTON       SUNNY     69  58  67 E9        30.08S
ROGERS CITY    PTSUNNY   68  58  71 E10       30.09S
TRAVERSE CITY  CLOUDY    69  61  75 VRB5      30.04S
$$
MIZ007>008-015-291500-
EASTERN UPPER MICHIGAN

CITY           SKY/WX    TMP DP  RH WIND       PRES   REMARKS
KINROSS        SUNNY     67  54  63 E7        30.10S
MACKINAC ISLAN SUNNY     66  57  72 E10G17    30.08S
NEWBERRY       SUNNY     66  55  68 NE5       30.10S
S. S. MARIE    SUNNY     68  55  63 CALM      30.10R
MUNISING         N/A     71  55  56 CALM      30.09R
$$
MIZ004>006-011>014-085-291500-
CENTRAL UPPER MICHIGAN

CITY           SKY/WX    TMP DP  RH WIND       PRES   REMARKS
MANISTIQUE     SUNNY     70  61  73 E9        30.08S
ESCANABA       SUNNY     68  61  77 NE7       30.06R
MENOMINEE      MOSUNNY  N/A N/A N/A NE10      30.05F
SAWYER-GWINN   MOSUNNY   64  55  72 NE8       30.11R
$$
MIZ001>003-009>011-084-291500-
WESTERN UPPER MICHIGAN

CITY           SKY/WX    TMP DP  RH WIND       PRES   REMARKS
IRON MOUNTAIN  SUNNY     66  56  70 CALM      30.08S
HOUGHTON       SUNNY     68  54  60 SE6       30.11S
COPPER HARBOR    N/A     67  59  75 CALM      30.11R
IRONWOOD       SUNNY     63  55  77 N5        30.10F
$$

ABBREVIATIONS USED IN REMARKS
   TC - TEMPERATURE IN CELSIUS
  WCI - WIND CHILL INDEX
   HX - HEAT INDEX
  VSB - VISIBILITY





USA.gov is the U.S. government's official web portal to all federal, state and local government web resources and services.